Temperature
20 20 20 20 20 20 20 21 21 21 20 20 20 20 20 20 19 19 19 19 19 19 19 19 19 19 18 18 18 18 18 18 18 18 18 18 18 18 17 17 17 17 17
21 20 20 20 20 20 20 21 21 21 21 21 20 20 20 20 20 19 19 19 19 19 19 19 19 19 18 18 18 18 18 18 18 18 17 17 18 18 17 17 17 17 17
21 20 20 20 20 20 20 21 21 21 21 20 20 20 20 20 19 19 19 19 19 19 19 19 19 18 18 18 18 18 18 18 18 18 17 17 17 18 18 17 17 17 17
21 20 20 20 20 20 20 20 20 20 20 20 20 20 20 19 19 19 19 19 19 19 19 18 18 18 18 18 18 18 18 18 18 18 17 17 17 18 18 18 18 18 18
21 20 20 20 20 20 20 20 20 20 20 20 20 19 19 19 19 19 19 19 18 18 18 18 18 18 18 18 18 18 18 18 18 18 18 17 18 18 18 18 18 18 18
21 20 20 20 20 20 20 20 20 20 20 19 19 19 19 19 19 18 18 18 18 18 18 18 18 18 18 18 18 18 18 17 17 18 18 18 18 18 18 18 18 18 18
21 20 20 20 20 20 20 20 20 20 20 19 19 19 19 19 18 18 18 18 18 18 18 18 18 18 18 18 18 18 17 17 17 18 17 17 17 18 18 18 18 18 18
21 20 20 20 20 20 20 20 20 20 20 19 19 19 19 19 18 18 18 18 18 18 18 18 17 18 18 18 18 18 17 17 17 17 17 17 17 17 18 18 18 18 18
21 21 20 20 20 20 20 20 20 20 20 20 20 19 19 19 19 18 18 18 18 18 18 17 17 18 18 18 18 18 17 17 17 18 17 17 17 17 17 18 18 18 18
20 21 20 20 20 20 20 20 20 20 20 20 20 20 19 19 19 18 18 18 18 18 18 17 17 18 18 18 18 18 18 17 17 17 17 17 17 17 17 17 18 18 18
20 20 20 20 20 20 20 20 20 19 19 19 19 19 19 19 19 18 18 18 18 18 18 18 17 17 18 18 18 18 18 18 18 17 17 17 17 17 17 17 17 18 18
20 20 20 20 20 20 19 19 19 19 19 19 19 19 18 18 18 18 18 18 18 18 18 17 17 17 17 17 18 18 18 18 18 18 17 17 17 17 17 17 17 17 17
19 19 19 19 19 19 19 18 18 18 18 18 18 18 18 18 18 18 18 17 17 17 17 17 17 17 17 17 17 17 17 18 18 18 18 17 17 17 17 17 17 17 17
19 19 19 19 19 19 18 18 18 18 18 18 18 18 17 17 17 17 17 17 17 17 17 17 17 17 17 17 17 17 17 17 17 18 18 18 17 17 17 17 17 17 17
19 19 19 19 18 18 18 18 17 17 17 17 17 17 17 17 17 17 17 17 17 17 16 16 16 16 16 16 16 16 17 17 17 17 17 17 17 17 17 17 17 17 17
18 18 18 18 18 18 18 18 17 17 17 17 17 17 17 17 16 16 16 16 16 16 16 16 16 16 16 16 16 16 16 16 16 16 16 17 17 17 17 17 17 17 17
18 18 18 18 18 18 18 18 18 17 17 17 17 16 16 16 16 16 16 16 16 16 16 16 16 16 16 16 16 16 16 16 16 16 16 16 16 17 17 17 17 17 17
18 18 18 18 18 18 18 18 18 17 17 17 17 16 16 16 16 16 15 15 15 15 15 16 16 16 16 16 15 15 15 15 15 15 15 16 16 16 16 17 17 17 17
18 18 18 18 18 18 18 18 17 17 17 16 16 16 16 15 15 15 15 15 15 15 15 15 15 15 15 15 15 15 15 15 15 15 15 16 16 16 16 17 17 17 17
18 18 18 18 18 18 17 17 17 16 16 16 15 15 15 14 14 14 15 15 14 15 15 15 15 15 15 15 15 15 15 15 15 15 15 15 16 16 16 16 17 17 17
18 18 18 18 18 17 17 16 16 16 15 15 14 14 14 14 14 14 14 14 14 14 14 14 14 14 14 14 14 15 15 15 16 16 16 16 16 16 16 16 16 16 17
18 18 18 17 17 17 16 16 15 15 14 14 13 13 13 13 13 13 13 13 13 14 14 14 14 14 14 14 14 14 14 15 16 16 16 16 16 16 16 16 16 16 16
18 18 17 17 17 16 16 15 15 14 14 13 13 12 12 12 12 12 12 12 13 13 13 13 13 13 13 14 13 13 14 14 15 16 16 16 16 16 16 16 16 16 16
18 18 17 17 16 16 15 15 14 14 13 12 12 12 12 11 11 11 11 12 12 12 13 13 13 13 13 13 13 13 13 13 13 14 15 15 15 16 16 16 16 16 16
18 18 17 17 16 16 15 14 14 13 12 12 12 11 11 11 11 11 11 11 11 11 12 12 12 12 12 13 13 13 13 13 13 13 14 15 15 15 16 16 16 16 16
18 18 17 17 16 15 15 14 13 13 12 12 11 11 11 11 11 10 10 10 10 11 11 11 12 12 12 12 12 12 12 13 12 12 13 13 14 15 16 16 16 16 16
Wind_Speed
6 10 16 16 17 18 18 19 19 19 18 18 18 18 18 17 16 16 15 15 13 12 11 9 8 7 7 7 8 9 10 11 11 11 11 12 12 13 14 16 16 16 19
10 13 17 16 17 17 18 19 19 19 18 18 18 17 17 16 15 15 14 14 13 12 11 10 9 8 8 8 8 9 10 10 10 10 11 11 12 13 14 16 16 15 19
13 13 16 16 16 16 17 18 18 18 18 18 17 17 16 15 15 14 13 13 12 12 11 10 9 9 8 9 9 9 9 9 9 9 9 8 11 13 14 15 16 17 18
13 13 14 16 15 15 15 16 17 17 17 16 16 16 15 15 14 13 12 12 11 11 10 10 9 9 8 8 8 8 8 9 9 8 6 6 8 12 14 15 16 16 16
11 12 14 16 15 14 14 14 14 15 15 15 14 14 13 13 12 11 11 10 10 10 10 9 9 9 8 8 8 8 7 7 8 7 5 4 6 12 13 14 15 16 16
10 12 14 15 14 14 13 13 13 13 13 13 12 12 11 11 10 10 9 9 8 8 8 9 9 9 8 8 7 7 6 6 7 6 4 3 6 11 13 14 14 15 15
11 10 13 14 13 13 13 12 12 11 11 11 11 11 10 10 10 10 10 9 8 8 8 8 9 9 9 8 7 7 6 6 5 5 4 5 7 11 13 13 14 14 15
11 9 11 13 12 11 11 11 11 11 11 10 10 10 10 10 10 10 10 10 9 9 9 8 9 9 9 9 8 7 7 6 5 5 5 7 10 12 13 14 14 15 15
9 7 7 9 10 10 10 10 10 10 10 10 10 10 10 10 10 9 9 9 10 10 10 10 10 10 11 10 9 8 7 7 4 4 4 7 11 13 14 15 15 15 16
7 6 5 6 6 6 7 8 9 9 9 9 10 10 10 10 10 10 9 10 10 10 11 11 11 11 11 11 11 10 9 8 6 5 4 6 11 14 16 17 17 17 17
6 4 4 3 3 3 4 6 7 7 8 9 9 10 10 8 8 8 9 10 11 12 12 12 12 13 12 12 12 12 11 8 7 6 7 8 10 14 18 19 19 19 19
4 3 2 2 1 2 3 3 3 4 5 7 7 8 7 7 7 8 9 11 12 12 12 13 14 13 12 11 12 12 9 9 8 7 8 11 11 12 16 20 22 22 21
3 2 2 1 1 0 1 2 2 3 4 6 7 8 8 7 7 7 7 9 9 10 9 10 11 11 10 9 9 9 10 9 9 9 10 12 12 13 14 19 23 24 24
4 4 5 3 3 2 2 2 3 3 4 5 7 8 7 5 4 5 5 5 5 6 6 6 6 9 10 11 11 10 11 10 10 10 11 13 13 14 14 17 22 25 26
6 6 5 5 4 3 3 2 2 2 3 5 5 5 5 4 4 3 3 4 4 5 5 5 5 6 7 8 10 10 10 11 12 12 11 14 14 15 15 16 20 25 27
7 6 6 6 5 4 3 3 3 4 5 6 7 7 6 4 3 2 2 2 3 4 5 5 5 5 5 5 7 9 10 11 12 13 13 14 16 16 16 16 18 23 26
6 6 5 5 5 5 4 4 4 5 6 6 7 9 8 6 4 2 2 2 3 4 4 4 4 4 5 6 8 8 8 10 11 13 14 13 14 16 18 18 17 19 23
6 5 4 4 5 4 4 4 4 5 6 6 7 9 9 8 6 3 2 3 3 3 2 2 3 4 5 6 6 7 7 8 10 12 13 14 13 14 17 20 18 19 21
6 5 4 3 4 4 4 4 4 5 6 6 7 8 9 9 8 4 2 3 3 2 2 3 2 3 5 6 7 7 7 8 9 10 11 13 15 15 15 17 20 20 21
5 4 4 3 2 2 2 3 3 4 4 5 6 7 9 9 8 5 3 3 3 2 2 2 3 3 5 6 7 7 7 8 8 9 11 10 13 16 17 16 16 18 22
5 5 4 3 2 1 2 2 2 2 3 3 4 7 9 9 8 5 3 4 3 2 3 3 3 4 4 3 3 5 5 8 10 9 9 9 11 13 15 15 15 16 16
7 6 5 4 3 2 1 1 1 0 2 2 3 6 8 9 8 6 4 4 3 3 3 2 2 2 2 2 2 2 4 4 3 7 7 8 9 8 10 13 15 16 16
8 8 6 6 4 2 2 2 2 3 3 4 4 4 6 8 8 6 5 4 4 2 3 3 2 2 3 2 3 3 2 3 4 2 3 5 6 7 8 8 12 16 17
9 7 6 5 4 3 2 1 1 1 2 3 3 4 6 7 7 6 5 4 4 3 3 3 1 1 2 2 2 3 4 3 3 4 3 2 4 6 7 8 10 12 15
7 6 6 5 4 3 2 2 2 3 3 3 3 5 5 5 6 6 5 4 4 3 3 3 2 1 1 2 2 1 2 2 3 4 5 4 3 4 5 7 8 8 13
5 5 5 5 4 3 3 3 3 5 5 5 5 5 5 4 4 5 4 3 3 3 3 3 2 2 2 2 2 2 1 1 1 2 4 4 5 4 4 5 6 7 9
Wind_Direction
148 152 149 143 138 134 130 126 123 121 119 118 120 124 129 134 139 145 151 155 157 157 155 149 140 129 122 122 125 127 126 125 126 128 126 123 122 121 119 119 118 119 122
142 151 150 145 140 136 133 130 128 127 127 126 127 129 133 137 142 148 153 158 161 162 160 156 150 141 134 130 130 131 132 134 136 136 132 128 127 126 124 123 122 126 125
140 148 149 146 142 138 136 134 132 133 133 134 136 137 141 145 149 154 158 162 165 166 165 163 158 150 142 139 139 140 142 143 143 135 123 122 130 131 130 129 129 129 128
138 141 147 148 145 142 140 138 138 138 139 141 142 144 147 151 155 159 163 167 169 170 170 169 165 159 151 148 148 149 151 150 144 126 109 120 138 140 138 137 136 135 134
130 136 150 150 149 148 147 145 144 145 146 147 148 150 153 156 160 165 169 173 176 177 177 177 173 167 161 159 159 160 161 156 146 130 119 110 139 148 147 145 143 142 141
125 135 151 152 153 153 153 154 153 153 154 155 156 158 161 165 169 173 178 184 188 190 191 188 183 177 172 170 171 173 178 174 152 136 149 141 152 160 157 155 153 150 149
130 134 149 152 155 157 159 160 161 162 162 164 165 169 174 179 184 187 190 195 201 205 206 203 195 189 185 182 184 187 196 197 163 151 177 181 180 176 170 167 164 161 159
133 129 144 152 156 159 164 166 169 172 173 175 179 183 189 195 199 201 203 206 211 218 219 220 209 199 195 192 192 196 204 214 200 174 181 189 194 192 185 180 175 172 170
125 119 125 147 158 164 171 176 178 181 184 187 191 196 202 209 213 214 217 220 224 228 229 228 222 213 206 201 200 202 209 219 199 171 190 195 203 204 198 191 187 183 180
118 115 117 129 145 161 178 187 191 195 197 201 205 210 215 221 226 228 229 232 237 238 238 236 229 222 216 212 211 212 215 220 211 205 208 210 214 215 210 202 196 193 189
134 123 117 120 132 162 190 207 209 216 218 219 223 226 228 231 238 244 245 244 245 246 246 245 239 231 223 219 220 221 222 216 203 208 215 224 226 224 220 211 203 200 198
154 146 107 118 135 202 226 236 243 258 255 245 242 246 250 243 241 246 251 254 254 254 253 250 247 240 231 224 227 229 229 223 215 213 220 229 233 235 229 220 210 205 202
140 120 87 62 53 169 317 329 304 293 288 273 261 254 256 254 252 255 255 259 263 265 262 256 251 240 230 223 224 228 233 232 229 223 224 228 232 238 239 228 219 212 206
108 82 68 58 45 26 39 346 330 314 299 287 278 270 256 254 253 252 251 255 256 260 258 253 245 238 230 226 225 226 229 229 231 230 229 233 235 237 242 237 228 220 213
87 74 62 60 69 55 52 44 31 6 343 331 327 308 270 249 248 242 249 252 254 257 255 251 247 243 238 233 229 228 230 230 230 230 231 234 238 239 242 243 234 227 220
92 84 76 76 82 86 83 73 55 41 27 20 8 350 331 291 270 256 247 249 256 254 253 252 252 249 246 243 241 236 235 234 233 231 232 236 240 241 241 244 237 229 224
118 116 113 115 106 105 97 83 75 60 50 36 19 9 360 342 312 285 268 265 265 264 260 260 262 258 258 251 249 246 243 242 238 235 235 233 234 239 240 239 236 229 225
144 142 146 127 118 114 107 94 78 64 56 41 30 22 14 7 356 336 307 295 297 288 272 266 263 263 260 255 254 253 248 245 243 240 236 233 229 234 238 237 235 230 227
169 164 167 151 140 123 102 82 68 57 49 39 33 25 17 14 10 1 331 318 322 308 286 278 267 253 265 263 260 256 248 245 245 244 239 234 231 230 233 236 234 230 227
189 185 181 171 154 109 76 60 44 38 30 27 24 17 14 10 10 11 355 342 342 324 310 298 280 263 259 265 271 269 255 249 243 240 240 236 233 232 230 229 230 232 228
202 202 203 192 195 136 69 57 39 3 345 352 356 3 5 6 7 14 6 353 345 309 291 295 284 282 273 255 265 281 272 252 244 241 237 235 236 234 230 226 224 225 226
211 213 213 211 208 185 135 120 126 341 315 308 322 343 358 2 2 11 7 351 337 305 296 295 274 285 283 244 232 272 306 312 273 244 236 234 237 234 231 226 222 220 222
220 217 214 213 211 196 140 93 47 20 354 342 337 335 337 343 349 356 357 353 346 325 291 284 262 247 277 283 232 229 251 275 312 302 249 242 242 236 234 227 225 223 220
224 216 213 211 210 203 159 155 189 264 283 279 290 299 312 326 335 342 350 358 358 352 321 300 277 246 257 286 289 246 244 251 274 308 310 274 260 250 243 235 230 225 221
214 205 204 202 210 206 191 197 220 254 257 281 293 300 308 315 322 330 337 350 353 349 337 324 314 273 228 253 275 286 281 263 243 258 289 309 310 274 254 239 232 225 220
202 193 188 192 214 214 217 223 227 253 272 289 295 299 303 308 311 319 326 334 330 328 329 327 312 288 254 247 255 253 245 264 276 260 276 299 302 293 277 250 233 225 218
Height
1520 1524 1526 1529 1531 1533 1535 1536 1538 1540 1541 1542 1544 1545 1546 1547 1548 1549 1549 1550 1551 1551 1552 1553 1554 1554 1555 1555 1555 1555 1556 1556 1557 1557 1557 1558 1558 1559 1559 1560 1561 1563 1564
1520 1524 1527 1530 1532 1534 1536 1538 1539 1541 1542 1543 1545 1546 1547 1548 1548 1549 1550 1550 1551 1552 1553 1554 1554 1555 1555 1556 1556 1556 1557 1557 1558 1558 1559 1559 1560 1561 1561 1562 1564 1565 1566
1521 1524 1528 1531 1533 1536 1537 1539 1540 1542 1543 1544 1545 1547 1547 1548 1549 1550 1550 1551 1552 1553 1553 1554 1555 1556 1556 1556 1557 1557 1558 1558 1559 1560 1561 1561 1562 1563 1564 1564 1566 1567 1568
1522 1525 1529 1532 1535 1537 1539 1540 1542 1543 1544 1545 1546 1547 1548 1549 1550 1550 1551 1551 1552 1553 1554 1555 1555 1556 1557 1557 1557 1558 1559 1560 1560 1561 1562 1563 1563 1564 1565 1566 1567 1569 1570
1523 1527 1530 1533 1536 1538 1540 1541 1543 1544 1545 1547 1547 1548 1549 1550 1550 1551 1551 1552 1552 1553 1554 1555 1556 1556 1557 1558 1558 1559 1560 1561 1561 1562 1563 1564 1565 1566 1567 1568 1569 1570 1572
1524 1528 1531 1534 1537 1539 1541 1542 1544 1545 1546 1547 1548 1548 1549 1550 1550 1551 1551 1552 1552 1553 1554 1555 1556 1557 1557 1558 1559 1559 1560 1562 1562 1563 1564 1565 1566 1567 1568 1569 1570 1571 1573
1525 1529 1532 1535 1537 1540 1541 1543 1544 1545 1546 1547 1548 1548 1549 1549 1550 1550 1551 1551 1552 1553 1554 1555 1556 1557 1557 1558 1559 1560 1561 1562 1563 1564 1564 1565 1566 1567 1568 1570 1571 1572 1574
1527 1530 1533 1536 1538 1540 1542 1543 1544 1545 1546 1547 1548 1548 1548 1548 1549 1550 1550 1551 1551 1552 1553 1554 1555 1556 1557 1557 1558 1559 1560 1562 1563 1564 1565 1566 1566 1567 1569 1570 1571 1573 1574
1529 1531 1534 1536 1538 1540 1542 1543 1544 1545 1546 1547 1547 1547 1547 1548 1548 1548 1549 1550 1550 1551 1552 1553 1554 1555 1556 1557 1557 1558 1560 1561 1562 1563 1564 1565 1566 1567 1568 1570 1571 1573 1574
1531 1533 1535 1537 1539 1540 1542 1544 1545 1545 1546 1546 1546 1546 1546 1546 1547 1547 1548 1548 1549 1550 1550 1551 1552 1553 1554 1555 1556 1557 1558 1559 1560 1561 1563 1564 1565 1566 1568 1569 1571 1572 1574
1533 1534 1536 1538 1539 1541 1542 1543 1544 1545 1545 1545 1545 1545 1545 1545 1545 1545 1546 1546 1547 1548 1548 1549 1550 1551 1552 1553 1554 1555 1556 1557 1558 1559 1561 1563 1564 1565 1566 1568 1569 1571 1573
1533 1535 1536 1538 1540 1541 1542 1543 1543 1543 1544 1544 1544 1543 1543 1543 1543 1543 1544 1544 1545 1545 1546 1547 1547 1548 1549 1550 1551 1552 1553 1554 1555 1557 1558 1560 1562 1563 1564 1566 1568 1570 1572
1534 1536 1538 1539 1540 1541 1542 1542 1542 1542 1542 1543 1542 1542 1541 1541 1541 1541 1541 1542 1542 1542 1543 1543 1544 1545 1545 1546 1547 1548 1549 1551 1552 1553 1555 1557 1558 1560 1561 1563 1565 1567 1569
1535 1537 1538 1539 1540 1540 1541 1541 1541 1541 1541 1541 1541 1540 1540 1539 1539 1539 1539 1539 1539 1539 1539 1540 1540 1541 1542 1542 1543 1544 1545 1546 1547 1549 1551 1552 1554 1556 1558 1559 1562 1564 1566
1536 1537 1538 1539 1539 1539 1540 1541 1540 1540 1539 1539 1539 1538 1537 1537 1536 1536 1536 1536 1536 1535 1536 1536 1536 1536 1537 1537 1538 1539 1540 1541 1542 1544 1545 1547 1549 1551 1553 1555 1557 1560 1563
1535 1536 1538 1538 1539 1539 1540 1540 1539 1539 1539 1538 1537 1536 1535 1534 1533 1533 1532 1532 1532 1532 1532 1532 1532 1532 1532 1532 1533 1534 1534 1535 1536 1538 1539 1541 1543 1545 1547 1550 1552 1555 1558
1536 1537 1538 1538 1539 1540 1540 1539 1539 1539 1537 1536 1535 1533 1533 1531 1531 1530 1529 1529 1529 1529 1528 1528 1528 1527 1527 1527 1527 1528 1529 1529 1530 1531 1533 1534 1536 1539 1541 1544 1546 1549 1552
1536 1537 1538 1539 1539 1540 1539 1539 1538 1537 1536 1534 1533 1531 1530 1529 1528 1527 1526 1526 1526 1525 1525 1524 1524 1523 1523 1522 1522 1523 1523 1523 1523 1524 1525 1527 1529 1531 1534 1537 1540 1543 1546
1537 1537 1538 1539 1539 1540 1539 1539 1538 1536 1534 1532 1530 1528 1527 1526 1525 1524 1523 1523 1523 1522 1522 1521 1520 1519 1519 1518 1518 1517 1517 1517 1517 1517 1518 1519 1521 1524 1527 1530 1533 1536 1539
1537 1538 1538 1539 1539 1539 1539 1538 1536 1535 1533 1530 1528 1526 1524 1523 1522 1521 1521 1520 1520 1519 1519 1518 1517 1516 1515 1514 1513 1512 1512 1512 1512 1511 1512 1513 1514 1517 1519 1523 1526 1529 1532
1536 1537 1538 1538 1538 1538 1537 1536 1534 1533 1531 1528 1526 1523 1521 1520 1519 1518 1517 1517 1517 1516 1516 1515 1514 1513 1512 1511 1509 1508 1508 1507 1507 1506 1506 1507 1508 1511 1513 1516 1519 1522 1525
1535 1536 1537 1537 1537 1536 1535 1534 1532 1530 1528 1526 1523 1521 1519 1517 1515 1514 1514 1513 1513 1513 1513 1513 1511 1510 1509 1508 1507 1505 1504 1504 1502 1502 1502 1502 1504 1506 1508 1510 1512 1515 1518
1534 1535 1535 1535 1535 1534 1533 1531 1530 1528 1526 1524 1521 1519 1516 1514 1513 1511 1510 1510 1509 1509 1509 1509 1508 1507 1506 1505 1504 1504 1503 1501 1500 1500 1499 1500 1500 1501 1503 1504 1506 1509 1511
1532 1533 1533 1533 1533 1532 1531 1529 1527 1525 1523 1521 1518 1516 1514 1512 1510 1509 1507 1506 1505 1505 1505 1505 1505 1504 1504 1503 1502 1502 1502 1501 1500 1498 1498 1498 1498 1498 1498 1499 1501 1503 1505
1530 1531 1531 1531 1530 1529 1528 1526 1525 1523 1521 1518 1516 1514 1511 1509 1508 1506 1504 1503 1502 1501 1501 1501 1501 1501 1501 1500 1500 1499 1498 1498 1497 1497 1494 1494 1495 1495 1495 1495 1496 1498 1500
1528 1528 1528 1528 1527 1526 1525 1524 1522 1520 1518 1515 1513 1510 1508 1506 1504 1502 1500 1499 1498 1497 1497 1497 1497 1497 1497 1497 1497 1496 1496 1495 1494 1494 1492 1491 1490 1491 1491 1492 1493 1494 1496